EW0784 Weather Reports


Display with metric or nautical units.
time (UTC)temp
F
wind
direction
speed
MPH
gust
MPH
rain 1hr
in
rain 24hr
in
rain mn
in
humidity
%
barometer
mb
20210728164543 77 116 5.0 15.0 0.06 0.13 0.13 78 1012.8
20210728163100 76 134 3.0 12.0 0.06 0.13 0.13 84 1014.0
20210728161556 74 149 1.0 7.0 0.06 0.13 0.13 88 1014.4
20210728160049 73 89 0.0 4.0 0.06 0.13 0.13 87 1014.5
20210728154554 74 91 1.0 6.0 0.00 0.07 0.07 82 1014.9
20210728153137 74 126 1.0 6.0 0.00 0.07 0.07 81 1014.3
20210728151558 73 109 1.0 4.0 0.00 0.07 0.07 85 1014.9
20210728150026 71 340 0.0 7.0 0.00 0.07 0.07 88 1015.0
20210728144548 71 107 1.0 8.0 0.01 0.07 0.07 91 1014.7
20210728143107 71 58 1.0 5.0 0.03 0.07 0.07 91 1017.2
20210728141531 71 139 1.0 8.0 0.05 0.07 0.07 91 1015.5
20210728140028 72 321 1.0 13.0 0.07 0.07 0.07 92 1015.7
20210728134542 72 246 1.0 3.0 0.06 0.06 0.06 92 1016.8
20210728133030 72 243 1.0 6.0 0.04 0.04 0.04 91 1016.9
20210728131515 73 214 1.0 10.0 0.02 0.02 0.02 91 1017.4
20210728130023 73 253 1.0 6.0 0.00 0.00 0.00 89 1017.6
20210728124538 73 250 1.0 4.0 0.00 0.00 0.00 87 1017.2
20210728123038 73 248 0.0 2.0 0.00 0.00 0.00 87 1017.0
20210728121508 72 245 0.0 4.0 0.00 0.00 0.00 88 1016.0
20210728120028 72 106 1.0 7.0 0.00 0.00 0.00 89 1014.5
20210728114511 72 143 1.0 5.0 0.00 0.00 0.00 90 1014.5
20210728113004 72 93 2.0 6.0 0.00 0.00 0.00 92 1014.6
20210728111533 72 146 0.0 7.0 0.00 0.00 0.00 93 1014.3
20210728110005 71 113 0.0 5.0 0.00 0.00 0.00 93 1013.9
20210728104621 71 127 0.0 5.0 0.00 0.00 0.00 93 1014.0
20210728103303 71 148 0.0 4.0 0.00 0.00 0.00 93 1013.6
20210728101708 72 126 0.0 4.0 0.00 0.00 0.00 93 1013.7
20210728100153 72 101 1.0 4.0 0.00 0.00 0.00 93 1013.8
20210728094652 72 98 0.0 2.0 0.00 0.00 0.00 92 1014.3
20210728093159 72 109 0.0 2.0 0.00 0.00 0.00 92 1014.4
20210728091655 72 124 0.0 1.0 0.00 0.00 0.00 92 1014.6
20210728090130 72 124 0.0 0.0 0.00 0.00 0.00 91 1014.6
20210728084708 72 124 0.0 1.0 0.00 0.00 0.00 90 1014.7
20210728083121 73 124 0.0 0.0 0.00 0.00 0.00 89 1014.6
20210728081631 73 99 0.0 0.0 0.00 0.00 0.00 89 1014.4
20210728080051 74 100 0.0 2.0 0.00 0.00 0.00 88 1014.4
20210728074611 74 109 0.0 3.0 0.00 0.00 0.00 88 1014.2
20210728073129 74 110 1.0 3.0 0.00 0.00 0.00 87 1014.3
20210728071551 74 80 0.0 4.0 0.00 0.00 0.00 87 1014.3
20210728070109 75 95 1.0 3.0 0.00 0.00 0.00 87 1014.3
20210728064652 75 124 2.0 7.0 0.00 0.00 0.00 87 1014.2
20210728063111 75 78 1.0 6.0 0.00 0.00 0.00 86 1014.1
20210728061639 75 110 2.0 9.0 0.00 0.00 0.00 86 1014.0
20210728060045 76 86 3.0 8.0 0.00 0.00 0.00 85 1014.3
20210728054604 76 81 1.0 5.0 0.00 0.00 0.00 85 1014.4
20210728053034 77 115 0.0 5.0 0.00 0.00 0.00 84 1014.6
20210728051615 77 94 1.0 6.0 0.00 0.00 0.00 83 1014.7
20210728050050 77 126 1.0 4.0 0.00 0.00 0.00 83 1014.7
20210728044534 77 123 1.0 7.0 0.00 0.00 0.00 83 1014.6
20210728043037 78 49 1.0 7.0 0.00 0.00 0.00 82 1014.3
20210728041531 78 122 0.0 6.0 0.00 0.00 0.00 81 1014.3
20210728040037 79 90 1.0 5.0 0.00 0.00 0.00 80 1014.3
20210728034548 79 99 1.0 4.0 0.00 0.00 0.00 80 1014.3
20210728033021 79 112 0.0 3.0 0.00 0.00 0.00 79 1014.2
20210728031534 80 74 0.0 3.0 0.00 0.00 0.00 78 1013.9
20210728030021 81 49 0.0 4.0 0.00 0.00 0.00 76 1013.7
20210728024518 81 55 1.0 3.0 0.00 0.00 0.00 75 1013.7
20210728023008 82 94 0.0 3.0 0.00 0.00 0.00 74 1013.5
20210728021512 83 49 0.0 4.0 0.00 0.00 0.00 72 1013.4
20210728020012 84 96 0.0 4.0 0.00 0.00 0.00 70 1013.4
20210728013017 85 79 0.0 4.0 0.00 0.00 0.00 66 1013.3
20210728011508 86 89 0.0 7.0 0.00 0.00 0.00 65 1013.3
20210728010004 87 47 1.0 6.0 0.00 0.00 0.00 63 1013.1
20210728004509 88 113 1.0 6.0 0.00 0.00 0.00 62 1013.1
20210728003002 89 105 1.0 6.0 0.00 0.00 0.00 61 1013.2
20210728001502 89 99 1.0 8.0 0.00 0.00 0.00 60 1013.2
20210728000005 90 101 2.0 7.0 0.00 0.00 0.00 58 1013.1
20210727234504 91 89 3.0 7.0 0.00 0.00 0.00 55 1013.0
20210727233138 92 90 1.0 4.0 0.00 0.00 0.00 53 1013.1
20210727231656 93 154 0.0 2.0 0.00 0.00 0.00 53 1013.1
20210727230207 94 141 1.0 3.0 0.00 0.00 0.00 51 1012.8
20210727224706 94 217 0.0 3.0 0.00 0.00 0.00 52 1012.9
20210727223148 95 82 2.0 4.0 0.00 0.00 0.00 51 1013.0
20210727221809 94 154 0.0 2.0 0.00 0.00 0.00 52 1012.9
20210727220221 93 243 0.0 4.0 0.00 0.00 0.00 53 1012.9
20210727214636 93 141 0.0 4.0 0.00 0.00 0.00 52 1013.1
20210727213243 93 231 0.0 3.0 0.00 0.00 0.00 52 1013.2
20210727211649 92 148 0.0 2.0 0.00 0.00 0.00 55 1013.2
20210727210123 91 247 0.0 5.0 0.00 0.00 0.00 56 1013.3
20210727204719 91 103 3.0 6.0 0.00 0.00 0.00 55 1013.3
20210727203115 90 120 1.0 9.0 0.00 0.00 0.00 58 1013.3
20210727201557 90 75 1.0 6.0 0.00 0.00 0.00 58 1013.4
20210727200132 89 107 3.0 8.0 0.00 0.00 0.00 57 1013.4
20210727194628 89 79 5.0 11.0 0.00 0.00 0.00 57 1013.3
20210727193218 89 131 3.0 10.0 0.00 0.00 0.00 57 1013.4
20210727191615 89 163 3.0 9.0 0.00 0.00 0.00 56 1013.3
20210727190116 88 72 2.0 10.0 0.00 0.00 0.00 57 1013.3
20210727184639 88 155 1.0 8.0 0.00 0.00 0.00 57 1013.4
20210727183050 88 209 2.0 10.0 0.00 0.00 0.00 58 1013.3
20210727181538 87 177 3.0 10.0 0.00 0.00 0.00 59 1013.4
20210727180112 88 245 2.0 6.0 0.00 0.00 0.00 60 1013.5
20210727174602 87 188 1.0 10.0 0.00 0.00 0.00 60 1013.4
20210727173057 87 149 1.0 7.0 0.00 0.00 0.00 61 1013.4
20210727171605 87 188 1.0 7.0 0.00 0.00 0.00 59 1013.5
20210727170124 86 146 1.0 10.0 0.00 0.00 0.00 63 1013.5